Regional Weather Roundup
Issued by NWS Green Bay, WI

Home | Current Version | Previous Version | Graphics & Text | Print | Product List | Glossary Off
Versions: 1 2 3 4 5 6 7 8 9 10 11 12 13 14 15 16 17 18 19 20 21 22 23 24 25 26 27 28 29 30 31 32 33 34 35 36 37 38 39 40 41 42 43 44 45 46 47 48 49 50

000
ASUS43 KGRB 222259
RWRGRB

NORTH-CENTRAL AND NORTHEAST WISCONSIN REGIONAL WEATHER ROUNDUP
NATIONAL WEATHER SERVICE GREEN BAY WI
600 PM CDT TUE JUL 22 2014

WIZ005-009-010>012-018-019-230000-
NORTH CENTRAL WISCONSIN

CITY           SKY/WX    TMP DP  RH WIND       PRES   REMARKS
IRONWOOD       PTSUNNY   68  57  68 NE7       30.05R
MANITOWISH WTR NOT AVBL
ARBOR VITAE    NOT AVBL
EAGLE RIVER    NOT AVBL
LAND O LAKES   NOT AVBL
RHINELANDER    CLOUDY    69  62  78 VRB7G20   30.06R
PHILLIPS       NOT AVBL
ANTIGO         NOT AVBL
TOMAHAWK       NOT AVBL
MERRILL        NOT AVBL
$$

WIZ013-073-230000-
NORTHEAST WISCONSIN

CITY           SKY/WX    TMP DP  RH WIND       PRES   REMARKS
IRON MOUNTAIN  CLOUDY    73  63  70 NW31G38   29.98R HAZE
MARINETTE      SUNNY     84  64  51 N13G18    29.89R
$$

WIZ017-030-035>037-045-230000-
CENTRAL WISCONSIN

CITY           SKY/WX    TMP DP  RH WIND       PRES   REMARKS
MEDFORD        NOT AVBL
WAUSAU         MOSUNNY   78  62  57 NW12G22   29.99R
MOSINEE        PTSUNNY   79  64  61 NW15      30.01R
MARSHFIELD     PTSUNNY   78  63  59 NW13      30.02R
WISC RAPIDS    PTSUNNY   82  65  56 NW14      30.00R
STEVENS POINT  NOT AVBL
WAUPACA        NOT AVBL
SHAWANO        NOT AVBL
CLINTONVILLE   NOT AVBL
$$

WIZ038-039-048-051-230000-
FOX VALLEY

CITY           SKY/WX    TMP DP  RH WIND       PRES   REMARKS
NWS GREEN BAY  SUNNY     88  67  49 NW13      29.90R HX  91
APPLETON       PTSUNNY   88  63  42 NW15G21   29.92R
OSHKOSH        SUNNY     88  66  48 NW17G24   29.91R HX  90
FOND DU LAC    MOSUNNY   89  69  51 NW16G25   29.91R HX  93
$$

WIZ022-050-052-230000-
EAST CENTRAL WISCONSIN

CITY           SKY/WX    TMP DP  RH WIND       PRES   REMARKS
STURGEON BAY   MOSUNNY   82  64  54 NW12G20   29.90R
MANITOWOC      NOT AVBL
SHEBOYGAN      RAIN      84  75  74 W15G22    29.89R HX  92
$$

LMZ563-521-522-541>543-230000-
LAKESHORE

STATION/POSITION TIME  TEMP    WIND        PRES    VSBY  WAVE
                       AIR SEA DIR/SP/G                  HT/PER
                 (UTC) (F)     (DEG/KT/KT) (MB)    (MI)  (FT/S)
SHEBOYGAN LKSHOR 2200   79     190/  5/  8 1011.4F
KEWAUNEE LKSHORE 2200          310/  6/ 13 1011.9S
NORTHPORT PIER   2200   77     340/ 12/ 16 1011.2R
N MID LAKE BUOY  2200   62 59  230/ 10/ 10 1010.8R         5/ 6
CHAMBERS ISLAND  2200   82     300/ 11/ 16 1011.2R
MENOMINEE LKSHOR 2200   70     320/ 14/ 20 1012.5R
$$



USA.gov is the U.S. government's official web portal to all federal, state and local government web resources and services.